Time,TemperatureF,DewpointF,PressureIn,WindDirection,WindDirectionDegrees,WindSpeedMPH,WindSpeedGustMPH,Humidity,HourlyPrecipIn,Conditions,Clouds,dailyrainin,SoftwareType,DateUTC
2013-12-01 00:00:00,52.7,49.8,30.15,South,177,1.0,1.0,90,0.00,,,0.00,Wunderground v.1.15,2013-12-01 06:00:00,
2013-12-01 00:10:00,52.5,49.7,30.15,South,176,0.0,0.0,90,0.00,,,0.00,Wunderground v.1.15,2013-12-01 06:10:00,
2013-12-01 00:15:00,52.4,49.6,30.15,South,176,0.0,0.0,90,0.00,,,0.00,Wunderground v.1.15,2013-12-01 06:15:00,
2013-12-01 00:20:00,52.2,49.4,30.15,South,176,0.0,0.0,90,0.00,,,0.00,Wunderground v.1.15,2013-12-01 06:20:00,
2013-12-01 00:30:00,51.8,49.0,30.14,South,176,0.0,0.0,90,0.00,,,0.00,Wunderground v.1.15,2013-12-01 06:30:00,
2013-12-01 00:35:00,51.6,48.8,30.14,South,176,0.0,0.0,90,0.00,,,0.00,Wunderground v.1.15,2013-12-01 06:35:00,
2013-12-01 00:40:00,51.5,48.7,30.14,South,176,0.0,0.0,90,0.00,,,0.00,Wunderground v.1.15,2013-12-01 06:40:00,
2013-12-01 00:45:00,51.3,48.8,30.14,South,176,0.0,0.0,91,0.00,,,0.00,Wunderground v.1.15,2013-12-01 06:45:00,
2013-12-01 00:55:00,51.0,48.2,30.13,South,176,0.0,0.0,90,0.00,,,0.00,Wunderground v.1.15,2013-12-01 06:55:00,
2013-12-01 01:00:00,50.7,48.2,30.13,South,176,0.0,0.0,91,0.00,,,0.00,Wunderground v.1.15,2013-12-01 07:00:00,
2013-12-01 01:10:00,50.5,48.0,30.13,South,176,0.0,0.0,91,0.00,,,0.00,Wunderground v.1.15,2013-12-01 07:10:00,
2013-12-01 01:15:00,50.4,47.9,30.13,South,176,0.0,0.0,91,0.00,,,0.00,Wunderground v.1.15,2013-12-01 07:15:00,
2013-12-01 01:20:00,50.3,47.8,30.14,South,176,0.0,0.0,91,0.00,,,0.00,Wunderground v.1.15,2013-12-01 07:20:00,
2013-12-01 01:25:00,50.2,47.7,30.14,South,176,0.0,0.0,91,0.00,,,0.00,Wunderground v.1.15,2013-12-01 07:25:00,
2013-12-01 01:30:00,50.1,47.9,30.14,South,176,0.0,0.0,92,0.00,,,0.00,Wunderground v.1.15,2013-12-01 07:30:00,
2013-12-01 01:40:00,49.8,47.6,30.14,South,176,0.0,0.0,92,0.00,,,0.00,Wunderground v.1.15,2013-12-01 07:40:00,
2013-12-01 01:45:00,49.7,47.5,30.14,South,176,0.0,0.0,92,0.00,,,0.00,Wunderground v.1.15,2013-12-01 07:45:00,
2013-12-01 01:50:00,49.5,47.3,30.14,South,176,0.0,0.0,92,0.00,,,0.00,Wunderground v.1.15,2013-12-01 07:50:00,
2013-12-01 01:55:00,49.5,47.3,30.13,South,176,0.0,0.0,92,0.00,,,0.00,Wunderground v.1.15,2013-12-01 07:55:00,
2013-12-01 02:00:00,49.4,47.2,30.14,South,176,0.0,0.0,92,0.00,,,0.00,Wunderground v.1.15,2013-12-01 08:00:00,
2013-12-01 02:10:00,49.3,47.1,30.12,South,176,0.0,0.0,92,0.00,,,0.00,Wunderground v.1.15,2013-12-01 08:10:00,
2013-12-01 02:20:00,49.3,47.1,30.12,South,176,0.0,0.0,92,0.00,,,0.00,Wunderground v.1.15,2013-12-01 08:20:00,
2013-12-01 02:25:00,49.4,47.5,30.13,South,176,0.0,0.0,93,0.00,,,0.00,Wunderground v.1.15,2013-12-01 08:25:00,
2013-12-01 02:30:00,49.4,47.5,30.13,South,176,0.0,0.0,93,0.00,,,0.00,Wunderground v.1.15,2013-12-01 08:30:00,
2013-12-01 02:35:00,49.5,47.6,30.13,South,176,0.0,0.0,93,0.00,,,0.00,Wunderground v.1.15,2013-12-01 08:35:00,
2013-12-01 02:40:00,49.5,47.6,30.13,South,176,0.0,0.0,93,0.00,,,0.00,Wunderground v.1.15,2013-12-01 08:40:00,
2013-12-01 02:50:00,49.7,47.8,30.13,South,176,0.0,0.0,93,0.00,,,0.00,Wunderground v.1.15,2013-12-01 08:50:00,
2013-12-01 02:55:00,49.9,48.0,30.13,South,176,0.0,0.0,93,0.00,,,0.00,Wunderground v.1.15,2013-12-01 08:55:00,
2013-12-01 03:00:00,50.1,48.4,30.13,South,176,0.0,0.0,94,0.00,,,0.00,Wunderground v.1.15,2013-12-01 09:00:00,
2013-12-01 03:10:00,50.3,48.4,30.13,South,176,0.0,0.0,93,0.00,,,0.00,Wunderground v.1.15,2013-12-01 09:10:00,
2013-12-01 03:15:00,50.3,48.4,30.13,South,176,0.0,2.0,93,0.00,,,0.00,Wunderground v.1.15,2013-12-01 09:15:00,
2013-12-01 03:20:00,50.3,48.4,30.13,South,176,0.0,0.0,93,0.00,,,0.00,Wunderground v.1.15,2013-12-01 09:20:00,
2013-12-01 03:25:00,50.4,48.7,30.12,South,176,1.0,1.0,94,0.00,,,0.00,Wunderground v.1.15,2013-12-01 09:25:00,
2013-12-01 03:30:00,50.6,48.9,30.12,South,176,2.0,2.0,94,0.00,,,0.00,Wunderground v.1.15,2013-12-01 09:30:00,
2013-12-01 03:35:00,50.8,49.1,30.12,South,176,2.0,5.0,94,0.00,,,0.00,Wunderground v.1.15,2013-12-01 09:35:00,
2013-12-01 03:40:00,51.0,49.3,30.11,South,169,3.0,7.0,94,0.00,,,0.00,Wunderground v.1.15,2013-12-01 09:40:00,
2013-12-01 03:45:00,51.2,49.5,30.12,SSE,167,2.0,7.0,94,0.00,,,0.00,Wunderground v.1.15,2013-12-01 09:45:00,
2013-12-01 03:50:00,51.2,49.5,30.12,SSE,167,1.0,1.0,94,0.00,,,0.00,Wunderground v.1.15,2013-12-01 09:50:00,
2013-12-01 03:55:00,51.2,49.5,30.12,SSE,168,0.0,1.0,94,0.00,,,0.00,Wunderground v.1.15,2013-12-01 09:55:00,
2013-12-01 04:00:00,51.5,49.8,30.12,South,171,2.0,2.0,94,0.00,,,0.00,Wunderground v.1.15,2013-12-01 10:00:00,
2013-12-01 04:10:00,51.9,50.2,30.11,South,173,2.0,2.0,94,0.00,,,0.00,Wunderground v.1.15,2013-12-01 10:10:00,
2013-12-01 04:20:00,52.0,50.3,30.11,South,173,2.0,4.0,94,0.00,,,0.00,Wunderground v.1.15,2013-12-01 10:20:00,
2013-12-01 04:25:00,52.1,50.4,30.11,South,175,3.0,4.0,94,0.00,,,0.00,Wunderground v.1.15,2013-12-01 10:25:00,
2013-12-01 04:30:00,52.1,50.4,30.11,South,180,3.0,3.0,94,0.00,,,0.00,Wunderground v.1.15,2013-12-01 10:30:00,
2013-12-01 04:35:00,52.2,50.5,30.11,South,182,2.0,6.0,94,0.00,,,0.00,Wunderground v.1.15,2013-12-01 10:35:00,
2013-12-01 04:45:00,52.2,50.5,30.11,South,183,3.0,3.0,94,0.00,,,0.00,Wunderground v.1.15,2013-12-01 10:45:00,
2013-12-01 04:50:00,52.2,50.5,30.11,South,183,1.0,1.0,94,0.00,,,0.00,Wunderground v.1.15,2013-12-01 10:50:00,
2013-12-01 04:55:00,52.1,50.4,30.12,South,183,0.0,1.0,94,0.00,,,0.00,Wunderground v.1.15,2013-12-01 10:55:00,
2013-12-01 05:00:00,52.2,50.5,30.12,South,183,0.0,0.0,94,0.00,,,0.00,Wunderground v.1.15,2013-12-01 11:00:00,
2013-12-01 05:10:00,52.3,50.6,30.12,South,184,1.0,1.0,94,0.00,,,0.00,Wunderground v.1.15,2013-12-01 11:10:00,
2013-12-01 05:15:00,52.3,50.6,30.11,South,184,1.0,1.0,94,0.00,,,0.00,Wunderground v.1.15,2013-12-01 11:15:00,
2013-12-01 05:20:00,52.3,50.6,30.12,South,184,0.0,0.0,94,0.00,,,0.00,Wunderground v.1.15,2013-12-01 11:20:00,
2013-12-01 05:30:00,52.5,50.8,30.11,South,184,1.0,3.0,94,0.00,,,0.00,Wunderground v.1.15,2013-12-01 11:30:00,
2013-12-01 05:35:00,52.6,50.9,30.11,South,184,2.0,4.0,94,0.00,,,0.00,Wunderground v.1.15,2013-12-01 11:35:00,
2013-12-01 05:40:00,52.7,51.0,30.11,South,186,2.0,2.0,94,0.00,,,0.00,Wunderground v.1.15,2013-12-01 11:40:00,
2013-12-01 05:45:00,52.7,51.0,30.10,South,186,1.0,2.0,94,0.00,,,0.00,Wunderground v.1.15,2013-12-01 11:45:00,
2013-12-01 05:50:00,52.6,50.9,30.10,South,186,1.0,1.0,94,0.00,,,0.00,Wunderground v.1.15,2013-12-01 11:50:00,
2013-12-01 06:00:00,52.6,50.9,30.11,South,186,0.0,0.0,94,0.00,,,0.00,Wunderground v.1.15,2013-12-01 12:00:00,
2013-12-01 06:10:00,52.7,51.0,30.10,South,182,1.0,1.0,94,0.00,,,0.00,Wunderground v.1.15,2013-12-01 12:10:00,
2013-12-01 06:20:00,53.0,51.6,30.10,South,178,2.0,2.0,95,0.00,,,0.00,Wunderground v.1.15,2013-12-01 12:20:00,
2013-12-01 06:25:00,53.3,51.9,30.10,South,182,2.0,2.0,95,0.00,,,0.00,Wunderground v.1.15,2013-12-01 12:25:00,
2013-12-01 06:30:00,53.4,52.0,30.10,South,180,2.0,2.0,95,0.00,,,0.00,Wunderground v.1.15,2013-12-01 12:30:00,
2013-12-01 06:40:00,53.5,51.8,30.10,South,180,1.0,1.0,94,0.00,,,0.00,Wunderground v.1.15,2013-12-01 12:40:00,
2013-12-01 06:45:00,53.6,51.9,30.09,South,181,1.0,1.0,94,0.00,,,0.00,Wunderground v.1.15,2013-12-01 12:45:00,
2013-12-01 06:50:00,53.6,51.9,30.10,South,180,2.0,2.0,94,0.00,,,0.00,Wunderground v.1.15,2013-12-01 12:50:00,
2013-12-01 06:55:00,53.7,52.3,30.10,South,177,2.0,6.0,95,0.00,,,0.00,Wunderground v.1.15,2013-12-01 12:55:00,
2013-12-01 07:00:00,53.8,52.4,30.10,South,179,2.0,7.0,95,0.00,,,0.00,Wunderground v.1.15,2013-12-01 13:00:00,
2013-12-01 07:10:00,53.8,52.4,30.10,South,182,1.0,7.0,95,0.00,,,0.00,Wunderground v.1.15,2013-12-01 13:10:00,
2013-12-01 07:15:00,53.9,52.5,30.10,South,186,2.0,7.0,95,0.00,,,0.00,Wunderground v.1.15,2013-12-01 13:15:00,
2013-12-01 07:20:00,53.9,52.5,30.10,South,186,4.0,4.0,95,0.00,,,0.00,Wunderground v.1.15,2013-12-01 13:20:00,
2013-12-01 07:30:00,54.1,52.7,30.10,South,178,3.0,3.0,95,0.00,,,0.00,Wunderground v.1.15,2013-12-01 13:30:00,
2013-12-01 07:35:00,54.2,52.8,30.10,South,184,3.0,3.0,95,0.00,,,0.00,Wunderground v.1.15,2013-12-01 13:35:00,
2013-12-01 07:40:00,54.4,53.0,30.10,South,177,2.0,2.0,95,0.00,,,0.00,Wunderground v.1.15,2013-12-01 13:40:00,
2013-12-01 07:45:00,54.5,53.1,30.09,SSE,162,1.0,5.0,95,0.00,,,0.00,Wunderground v.1.15,2013-12-01 13:45:00,
2013-12-01 07:55:00,54.6,53.2,30.09,SSE,165,1.0,1.0,95,0.00,,,0.00,Wunderground v.1.15,2013-12-01 13:55:00,
2013-12-01 08:00:00,54.7,53.3,30.09,South,173,0.0,0.0,95,0.00,,,0.00,Wunderground v.1.15,2013-12-01 14:00:00,
2013-12-01 08:10:00,55.0,53.6,30.09,South,187,2.0,5.0,95,0.00,,,0.00,Wunderground v.1.15,2013-12-01 14:10:00,
2013-12-01 08:15:00,55.3,53.9,30.10,SSW,197,2.0,5.0,95,0.00,,,0.00,Wunderground v.1.15,2013-12-01 14:15:00,
2013-12-01 08:20:00,55.4,54.0,30.09,South,174,2.0,9.0,95,0.00,,,0.00,Wunderground v.1.15,2013-12-01 14:20:00,
2013-12-01 08:25:00,55.6,54.2,30.10,South,187,3.0,9.0,95,0.00,,,0.00,Wunderground v.1.15,2013-12-01 14:25:00,
2013-12-01 08:30:00,56.0,54.6,30.10,South,180,3.0,4.0,95,0.00,,,0.00,Wunderground v.1.15,2013-12-01 14:30:00,
2013-12-01 08:35:00,56.4,55.0,30.10,SSW,193,2.0,5.0,95,0.00,,,0.00,Wunderground v.1.15,2013-12-01 14:35:00,
2013-12-01 08:45:00,56.8,55.1,30.10,SSW,200,2.0,3.0,94,0.00,,,0.00,Wunderground v.1.15,2013-12-01 14:45:00,
2013-12-01 08:50:00,57.2,55.5,30.10,SSW,196,3.0,7.0,94,0.00,,,0.00,Wunderground v.1.15,2013-12-01 14:50:00,
2013-12-01 08:55:00,57.9,55.9,30.10,SSW,200,3.0,7.0,93,0.00,,,0.00,Wunderground v.1.15,2013-12-01 14:55:00,
2013-12-01 09:00:00,58.7,56.4,30.10,South,175,2.0,8.0,92,0.00,,,0.00,Wunderground v.1.15,2013-12-01 15:00:00,
2013-12-01 09:10:00,59.7,56.8,30.10,South,185,3.0,3.0,90,0.00,,,0.00,Wunderground v.1.15,2013-12-01 15:10:00,
2013-12-01 09:15:00,59.9,56.6,30.10,SSW,196,4.0,4.0,89,0.00,,,0.00,Wunderground v.1.15,2013-12-01 15:15:00,
2013-12-01 09:25:00,61.1,57.5,30.10,SSW,202,5.0,5.0,88,0.00,,,0.00,Wunderground v.1.15,2013-12-01 15:25:00,
2013-12-01 09:30:00,61.7,57.8,30.10,South,179,4.0,7.0,87,0.00,,,0.00,Wunderground v.1.15,2013-12-01 15:30:00,
2013-12-01 09:35:00,62.0,57.4,30.10,SSW,210,4.0,7.0,85,0.00,,,0.00,Wunderground v.1.15,2013-12-01 15:35:00,
2013-12-01 09:40:00,62.6,58.0,30.10,SSW,205,4.0,4.0,85,0.00,,,0.00,Wunderground v.1.15,2013-12-01 15:40:00,
2013-12-01 09:45:00,63.5,58.6,30.11,SSW,196,4.0,4.0,84,0.00,,,0.00,Wunderground v.1.15,2013-12-01 15:45:00,
2013-12-01 09:55:00,65.0,58.7,30.10,South,173,5.0,9.0,80,0.00,,,0.00,Wunderground v.1.15,2013-12-01 15:55:00,
2013-12-01 10:00:00,65.1,58.4,30.10,SSW,194,8.0,13.0,79,0.00,,,0.00,Wunderground v.1.15,2013-12-01 16:00:00,
2013-12-01 10:10:00,65.0,58.0,30.10,SW,225,9.0,9.0,78,0.00,,,0.00,Wunderground v.1.15,2013-12-01 16:10:00,
2013-12-01 10:15:00,64.9,58.2,30.10,SSW,192,8.0,9.0,79,0.00,,,0.00,Wunderground v.1.15,2013-12-01 16:15:00,
2013-12-01 10:20:00,64.9,58.2,30.10,SW,229,9.0,10.0,79,0.00,,,0.00,Wunderground v.1.15,2013-12-01 16:20:00,
2013-12-01 10:25:00,65.2,58.2,30.09,South,181,6.0,10.0,78,0.00,,,0.00,Wunderground v.1.15,2013-12-01 16:25:00,
2013-12-01 10:30:00,65.4,58.4,30.09,SSW,196,5.0,7.0,78,0.00,,,0.00,Wunderground v.1.15,2013-12-01 16:30:00,
2013-12-01 10:40:00,65.6,58.6,30.09,WSW,253,6.0,8.0,78,0.00,,,0.00,Wunderground v.1.15,2013-12-01 16:40:00,
2013-12-01 10:45:00,66.1,58.7,30.09,SSW,209,4.0,8.0,77,0.00,,,0.00,Wunderground v.1.15,2013-12-01 16:45:00,
2013-12-01 10:50:00,66.4,58.6,30.09,SSW,198,5.0,14.0,76,0.00,,,0.00,Wunderground v.1.15,2013-12-01 16:50:00,
2013-12-01 11:00:00,66.0,57.8,30.08,SW,221,9.0,9.0,75,0.00,,,0.00,Wunderground v.1.15,2013-12-01 17:00:00,
2013-12-01 11:10:00,66.0,57.8,30.07,SW,234,8.0,8.0,75,0.00,,,0.00,Wunderground v.1.15,2013-12-01 17:10:00,
2013-12-01 11:20:00,66.2,58.0,30.07,SW,220,8.0,8.0,75,0.00,,,0.00,Wunderground v.1.15,2013-12-01 17:20:00,
2013-12-01 11:25:00,66.8,58.2,30.06,SW,216,7.0,8.0,74,0.00,,,0.00,Wunderground v.1.15,2013-12-01 17:25:00,
2013-12-01 11:30:00,67.0,58.1,30.06,SSW,200,9.0,12.0,73,0.00,,,0.00,Wunderground v.1.15,2013-12-01 17:30:00,
2013-12-01 11:35:00,67.0,58.1,30.05,SW,232,9.0,12.0,73,0.00,,,0.00,Wunderground v.1.15,2013-12-01 17:35:00,
2013-12-01 11:40:00,67.1,58.2,30.05,SW,215,8.0,9.0,73,0.00,,,0.00,Wunderground v.1.15,2013-12-01 17:40:00,
2013-12-01 11:50:00,66.8,57.9,30.04,SW,228,9.0,10.0,73,0.00,,,0.00,Wunderground v.1.15,2013-12-01 17:50:00,
2013-12-01 11:55:00,66.9,57.6,30.04,SW,223,10.0,11.0,72,0.00,,,0.00,Wunderground v.1.15,2013-12-01 17:55:00,
2013-12-01 12:00:00,67.3,58.7,30.04,SSW,209,8.0,8.0,74,0.00,,,0.00,Wunderground v.1.15,2013-12-01 18:00:00,
2013-12-01 12:10:00,67.1,58.2,30.02,SW,215,9.0,9.0,73,0.00,,,0.00,Wunderground v.1.15,2013-12-01 18:10:00,
2013-12-01 12:15:00,67.7,58.3,30.02,South,188,7.0,9.0,72,0.00,,,0.00,Wunderground v.1.15,2013-12-01 18:15:00,
2013-12-01 12:20:00,68.3,58.5,30.02,WSW,239,6.0,6.0,71,0.00,,,0.00,Wunderground v.1.15,2013-12-01 18:20:00,
2013-12-01 12:30:00,68.6,58.8,30.02,SW,229,7.0,7.0,71,0.00,,,0.00,Wunderground v.1.15,2013-12-01 18:30:00,
2013-12-01 12:35:00,68.8,58.6,30.01,South,186,7.0,7.0,70,0.00,,,0.00,Wunderground v.1.15,2013-12-01 18:35:00,
2013-12-01 12:40:00,69.0,58.4,30.01,SW,222,8.0,11.0,69,0.00,,,0.00,Wunderground v.1.15,2013-12-01 18:40:00,
2013-12-01 12:45:00,68.6,58.4,30.01,SSW,212,9.0,11.0,70,0.00,,,0.00,Wunderground v.1.15,2013-12-01 18:45:00,
2013-12-01 12:50:00,68.6,58.8,30.01,SW,216,7.0,7.0,71,0.00,,,0.00,Wunderground v.1.15,2013-12-01 18:50:00,
2013-12-01 13:00:00,68.2,58.4,30.00,SW,221,8.0,10.0,71,0.00,,,0.00,Wunderground v.1.15,2013-12-01 19:00:00,
2013-12-01 13:10:00,68.1,57.9,29.99,SW,234,4.0,6.0,70,0.00,,,0.00,Wunderground v.1.15,2013-12-01 19:10:00,
2013-12-01 13:15:00,68.1,58.3,29.99,SW,228,5.0,6.0,71,0.00,,,0.00,Wunderground v.1.15,2013-12-01 19:15:00,
2013-12-01 13:20:00,68.1,57.9,29.99,SSW,201,6.0,7.0,70,0.00,,,0.00,Wunderground v.1.15,2013-12-01 19:20:00,
2013-12-01 13:25:00,68.1,57.9,29.98,SSW,207,8.0,8.0,70,0.00,,,0.00,Wunderground v.1.15,2013-12-01 19:25:00,
2013-12-01 13:30:00,68.4,58.2,29.98,SW,221,6.0,6.0,70,0.00,,,0.00,Wunderground v.1.15,2013-12-01 19:30:00,
2013-12-01 13:40:00,68.3,58.1,29.98,SSW,202,6.0,6.0,70,0.00,,,0.00,Wunderground v.1.15,2013-12-01 19:40:00,
2013-12-01 13:45:00,68.2,58.0,29.97,SSW,207,8.0,14.0,70,0.00,,,0.00,Wunderground v.1.15,2013-12-01 19:45:00,
2013-12-01 13:50:00,68.1,57.9,29.97,SSW,211,8.0,8.0,70,0.00,,,0.00,Wunderground v.1.15,2013-12-01 19:50:00,
2013-12-01 13:55:00,68.1,57.9,29.97,SW,223,7.0,8.0,70,0.00,,,0.00,Wunderground v.1.15,2013-12-01 19:55:00,
2013-12-01 14:00:00,68.1,57.9,29.97,SSW,194,5.0,8.0,70,0.00,,,0.00,Wunderground v.1.15,2013-12-01 20:00:00,
2013-12-01 14:10:00,68.3,58.1,29.97,SW,216,6.0,11.0,70,0.00,,,0.00,Wunderground v.1.15,2013-12-01 20:10:00,
2013-12-01 14:15:00,68.2,57.6,29.96,SW,217,7.0,11.0,69,0.00,,,0.00,Wunderground v.1.15,2013-12-01 20:15:00,
2013-12-01 14:25:00,68.1,57.9,29.96,SSW,212,6.0,8.0,70,0.00,,,0.00,Wunderground v.1.15,2013-12-01 20:25:00,
2013-12-01 14:30:00,68.2,58.0,29.96,SSW,208,4.0,7.0,70,0.00,,,0.00,Wunderground v.1.15,2013-12-01 20:30:00,
2013-12-01 14:35:00,68.3,58.1,29.96,SW,220,4.0,9.0,70,0.00,,,0.00,Wunderground v.1.15,2013-12-01 20:35:00,
2013-12-01 14:40:00,68.3,58.1,29.96,SW,224,5.0,6.0,70,0.00,,,0.00,Wunderground v.1.15,2013-12-01 20:40:00,
2013-12-01 14:45:00,68.2,58.0,29.95,SW,217,6.0,6.0,70,0.00,,,0.00,Wunderground v.1.15,2013-12-01 20:45:00,
2013-12-01 14:55:00,67.9,57.8,29.95,SSW,210,7.0,7.0,70,0.00,,,0.00,Wunderground v.1.15,2013-12-01 20:55:00,
2013-12-01 15:00:00,67.7,58.0,29.95,SSW,213,7.0,7.0,71,0.00,,,0.00,Wunderground v.1.15,2013-12-01 21:00:00,
2013-12-01 15:10:00,67.3,57.6,29.95,SW,223,7.0,7.0,71,0.00,,,0.00,Wunderground v.1.15,2013-12-01 21:10:00,
2013-12-01 15:15:00,67.2,57.5,29.95,SSW,196,7.0,10.0,71,0.00,,,0.00,Wunderground v.1.15,2013-12-01 21:15:00,
2013-12-01 15:20:00,67.1,57.8,29.95,SW,215,5.0,9.0,72,0.00,,,0.00,Wunderground v.1.15,2013-12-01 21:20:00,
2013-12-01 15:25:00,67.0,57.7,29.95,SW,219,5.0,9.0,72,0.00,,,0.00,Wunderground v.1.15,2013-12-01 21:25:00,
2013-12-01 15:35:00,66.7,57.8,29.95,SSW,200,6.0,7.0,73,0.00,,,0.00,Wunderground v.1.15,2013-12-01 21:35:00,
2013-12-01 15:40:00,66.6,57.7,29.95,SSW,205,4.0,5.0,73,0.00,,,0.00,Wunderground v.1.15,2013-12-01 21:40:00,
2013-12-01 15:45:00,66.5,57.6,29.94,SSW,194,6.0,8.0,73,0.00,,,0.00,Wunderground v.1.15,2013-12-01 21:45:00,
2013-12-01 15:50:00,66.4,57.5,29.94,SSW,197,5.0,5.0,73,0.00,,,0.00,Wunderground v.1.15,2013-12-01 21:50:00,
2013-12-01 15:55:00,66.3,57.8,29.93,SSW,209,4.0,5.0,74,0.00,,,0.00,Wunderground v.1.15,2013-12-01 21:55:00,
2013-12-01 16:00:00,66.2,57.7,29.93,SSW,209,5.0,6.0,74,0.00,,,0.00,Wunderground v.1.15,2013-12-01 22:00:00,
2013-12-01 16:10:00,65.9,57.4,29.93,SSW,200,4.0,4.0,74,0.00,,,0.00,Wunderground v.1.15,2013-12-01 22:10:00,
2013-12-01 16:20:00,65.8,57.7,29.93,SSW,208,2.0,2.0,75,0.00,,,0.00,Wunderground v.1.15,2013-12-01 22:20:00,
2013-12-01 16:25:00,65.7,57.6,29.93,SSW,202,1.0,2.0,75,0.00,,,0.00,Wunderground v.1.15,2013-12-01 22:25:00,
2013-12-01 16:30:00,65.6,57.8,29.93,SSW,208,1.0,5.0,76,0.00,,,0.00,Wunderground v.1.15,2013-12-01 22:30:00,
2013-12-01 16:35:00,65.4,57.6,29.92,SSW,208,2.0,8.0,76,0.00,,,0.00,Wunderground v.1.15,2013-12-01 22:35:00,
2013-12-01 16:45:00,65.2,57.4,29.92,SW,214,1.0,2.0,76,0.00,,,0.00,Wunderground v.1.15,2013-12-01 22:45:00,
2013-12-01 16:50:00,65.1,57.3,29.92,SSW,213,0.0,0.0,76,0.00,,,0.00,Wunderground v.1.15,2013-12-01 22:50:00,
2013-12-01 16:55:00,65.0,57.6,29.92,SSW,213,0.0,0.0,77,0.00,,,0.00,Wunderground v.1.15,2013-12-01 22:55:00,
2013-12-01 17:00:00,64.8,57.4,29.92,SSW,213,0.0,0.0,77,0.00,,,0.00,Wunderground v.1.15,2013-12-01 23:00:00,
2013-12-01 17:10:00,64.5,57.5,29.92,SSW,209,1.0,1.0,78,0.00,,,0.00,Wunderground v.1.15,2013-12-01 23:10:00,
2013-12-01 17:15:00,64.4,57.4,29.92,SSW,208,1.0,1.0,78,0.00,,,0.00,Wunderground v.1.15,2013-12-01 23:15:00,
2013-12-01 17:20:00,64.2,57.2,29.92,SSW,207,0.0,0.0,78,0.00,,,0.00,Wunderground v.1.15,2013-12-01 23:20:00,
2013-12-01 17:30:00,63.8,57.2,29.92,SSW,209,0.0,0.0,79,0.00,,,0.00,Wunderground v.1.15,2013-12-01 23:30:00,
2013-12-01 17:35:00,63.6,57.0,29.92,SSW,209,0.0,0.0,79,0.00,,,0.00,Wunderground v.1.15,2013-12-01 23:35:00,
2013-12-01 17:40:00,63.5,57.2,29.92,SSW,209,0.0,0.0,80,0.00,,,0.00,Wunderground v.1.15,2013-12-01 23:40:00,
2013-12-01 17:45:00,63.2,56.9,29.92,SSW,209,0.0,0.0,80,0.00,,,0.00,Wunderground v.1.15,2013-12-01 23:45:00,
2013-12-01 17:50:00,63.1,57.2,29.92,SSW,209,0.0,0.0,81,0.00,,,0.00,Wunderground v.1.15,2013-12-01 23:50:00,
2013-12-01 18:00:00,62.7,56.8,29.92,SSW,208,0.0,0.0,81,0.00,,,0.00,Wunderground v.1.15,2013-12-02 00:00:00,
2013-12-01 18:10:00,62.4,56.8,29.92,SSW,208,0.0,0.0,82,0.00,,,0.00,Wunderground v.1.15,2013-12-02 00:10:00,
2013-12-01 18:15:00,62.2,56.6,29.92,SSW,208,0.0,0.0,82,0.00,,,0.00,Wunderground v.1.15,2013-12-02 00:15:00,
2013-12-01 18:20:00,62.0,56.4,29.92,SSW,208,0.0,0.0,82,0.00,,,0.00,Wunderground v.1.15,2013-12-02 00:20:00,
2013-12-01 18:25:00,61.8,56.6,29.92,SSW,208,0.0,0.0,83,0.00,,,0.00,Wunderground v.1.15,2013-12-02 00:25:00,
2013-12-01 18:30:00,61.6,56.4,29.92,SSW,208,0.0,0.0,83,0.00,,,0.00,Wunderground v.1.15,2013-12-02 00:30:00,
2013-12-01 18:40:00,61.3,56.4,29.92,SSW,208,0.0,0.0,84,0.00,,,0.00,Wunderground v.1.15,2013-12-02 00:40:00,
2013-12-01 18:45:00,61.2,56.3,29.92,SSW,208,0.0,0.0,84,0.00,,,0.00,Wunderground v.1.15,2013-12-02 00:45:00,
2013-12-01 18:50:00,61.0,56.1,29.92,SSW,208,0.0,0.0,84,0.00,,,0.00,Wunderground v.1.15,2013-12-02 00:50:00,
2013-12-01 18:55:00,60.9,56.4,29.92,SSW,208,0.0,0.0,85,0.00,,,0.00,Wunderground v.1.15,2013-12-02 00:55:00,
2013-12-01 19:00:00,60.9,56.4,29.92,SSW,208,0.0,0.0,85,0.00,,,0.00,Wunderground v.1.15,2013-12-02 01:00:00,
2013-12-01 19:10:00,60.7,56.2,29.93,SSW,208,0.0,0.0,85,0.00,,,0.00,Wunderground v.1.15,2013-12-02 01:10:00,
2013-12-01 19:20:00,60.6,56.1,29.93,SSW,208,0.0,0.0,85,0.00,,,0.00,Wunderground v.1.15,2013-12-02 01:20:00,
2013-12-01 19:25:00,60.5,56.3,29.93,SSW,208,0.0,0.0,86,0.00,,,0.00,Wunderground v.1.15,2013-12-02 01:25:00,
2013-12-01 19:30:00,60.4,56.2,29.93,SSW,208,0.0,0.0,86,0.00,,,0.00,Wunderground v.1.15,2013-12-02 01:30:00,
2013-12-01 19:35:00,60.3,56.1,29.93,SSW,208,0.0,0.0,86,0.00,,,0.00,Wunderground v.1.15,2013-12-02 01:35:00,
2013-12-01 19:40:00,60.1,55.9,29.92,SSW,208,0.0,0.0,86,0.00,,,0.00,Wunderground v.1.15,2013-12-02 01:40:00,
2013-12-01 19:50:00,59.7,55.5,29.92,SSW,208,0.0,0.0,86,0.00,,,0.00,Wunderground v.1.15,2013-12-02 01:50:00,
2013-12-01 19:55:00,59.5,55.3,29.92,SSW,208,0.0,0.0,86,0.00,,,0.00,Wunderground v.1.15,2013-12-02 01:55:00,
2013-12-01 20:00:00,59.3,55.1,29.91,SSW,208,0.0,0.0,86,0.00,,,0.00,Wunderground v.1.15,2013-12-02 02:00:00,
2013-12-01 20:10:00,59.0,55.1,29.92,SSW,208,0.0,0.0,87,0.00,,,0.00,Wunderground v.1.15,2013-12-02 02:10:00,
2013-12-01 20:15:00,58.9,55.0,29.92,SSW,208,0.0,0.0,87,0.00,,,0.00,Wunderground v.1.15,2013-12-02 02:15:00,
2013-12-01 20:20:00,58.7,55.2,29.92,SSW,208,0.0,0.0,88,0.00,,,0.00,Wunderground v.1.15,2013-12-02 02:20:00,
2013-12-01 20:30:00,58.2,54.7,29.92,SSW,208,0.0,0.0,88,0.00,,,0.00,Wunderground v.1.15,2013-12-02 02:30:00,
2013-12-01 20:35:00,58.0,54.5,29.92,SSW,208,0.0,0.0,88,0.00,,,0.00,Wunderground v.1.15,2013-12-02 02:35:00,
2013-12-01 20:40:00,57.8,54.3,29.92,SSW,208,0.0,0.0,88,0.00,,,0.00,Wunderground v.1.15,2013-12-02 02:40:00,
2013-12-01 20:45:00,57.6,54.1,29.92,SSW,208,0.0,0.0,88,0.00,,,0.00,Wunderground v.1.15,2013-12-02 02:45:00,
2013-12-01 20:50:00,57.4,54.2,29.91,SSW,208,0.0,0.0,89,0.00,,,0.00,Wunderground v.1.15,2013-12-02 02:50:00,
2013-12-01 21:00:00,57.0,53.8,29.91,SSW,208,0.0,0.0,89,0.00,,,0.00,Wunderground v.1.15,2013-12-02 03:00:00,
2013-12-01 21:10:00,56.6,53.4,29.90,SSW,208,0.0,4.0,89,0.00,,,0.00,Wunderground v.1.15,2013-12-02 03:10:00,
2013-12-01 21:15:00,56.5,53.6,29.90,SSW,208,1.0,4.0,90,0.00,,,0.00,Wunderground v.1.15,2013-12-02 03:15:00,
2013-12-01 21:20:00,56.6,53.7,29.90,SSW,208,1.0,1.0,90,0.00,,,0.00,Wunderground v.1.15,2013-12-02 03:20:00,
2013-12-01 21:25:00,56.6,54.0,29.91,SSW,208,0.0,1.0,91,0.00,,,0.00,Wunderground v.1.15,2013-12-02 03:25:00,
2013-12-01 21:30:00,56.6,54.0,29.91,SSW,208,0.0,0.0,91,0.00,,,0.00,Wunderground v.1.15,2013-12-02 03:30:00,
2013-12-01 21:35:00,56.5,53.9,29.91,SSW,208,0.0,0.0,91,0.00,,,0.00,Wunderground v.1.15,2013-12-02 03:35:00,
2013-12-01 21:45:00,56.5,53.9,29.91,SSW,208,1.0,1.0,91,0.00,,,0.00,Wunderground v.1.15,2013-12-02 03:45:00,
2013-12-01 21:55:00,56.5,53.9,29.90,SSW,208,1.0,1.0,91,0.00,,,0.00,Wunderground v.1.15,2013-12-02 03:55:00,
2013-12-01 22:00:00,56.6,54.3,29.90,SSW,208,0.0,0.0,92,0.00,,,0.00,Wunderground v.1.15,2013-12-02 04:00:00,
2013-12-01 22:10:00,56.5,54.2,29.90,SSW,208,1.0,1.0,92,0.00,,,0.00,Wunderground v.1.15,2013-12-02 04:10:00,
2013-12-01 22:15:00,56.4,54.1,29.89,SSW,208,0.0,1.0,92,0.00,,,0.00,Wunderground v.1.15,2013-12-02 04:15:00,
2013-12-01 22:20:00,56.2,53.9,29.90,SSW,208,0.0,0.0,92,0.00,,,0.00,Wunderground v.1.15,2013-12-02 04:20:00,
2013-12-01 22:25:00,56.0,53.4,29.90,SSW,208,0.0,0.0,91,0.00,,,0.00,Wunderground v.1.15,2013-12-02 04:25:00,
2013-12-01 22:35:00,55.5,53.2,29.89,SSW,208,0.0,0.0,92,0.00,,,0.00,Wunderground v.1.15,2013-12-02 04:35:00,
2013-12-01 22:40:00,55.4,53.1,29.89,SSW,208,0.0,0.0,92,0.00,,,0.00,Wunderground v.1.15,2013-12-02 04:40:00,
2013-12-01 22:45:00,55.4,53.1,29.89,SSW,208,1.0,1.0,92,0.00,,,0.00,Wunderground v.1.15,2013-12-02 04:45:00,
2013-12-01 22:50:00,55.4,53.1,29.89,SSW,208,2.0,2.0,92,0.00,,,0.00,Wunderground v.1.15,2013-12-02 04:50:00,
2013-12-01 22:55:00,55.4,53.1,29.89,SSW,208,2.0,2.0,92,0.00,,,0.00,Wunderground v.1.15,2013-12-02 04:55:00,
2013-12-01 23:00:00,55.4,53.1,29.89,SW,217,2.0,4.0,92,0.00,,,0.00,Wunderground v.1.15,2013-12-02 05:00:00,
2013-12-01 23:05:00,55.3,53.0,29.89,SW,218,2.0,4.0,92,0.00,,,0.00,Wunderground v.1.15,2013-12-02 05:05:00,
2013-12-01 23:10:00,55.0,52.7,29.90,SW,218,1.0,3.0,92,0.00,,,0.00,Wunderground v.1.15,2013-12-02 05:10:00,
2013-12-01 23:15:00,54.8,52.5,29.89,SW,219,1.0,3.0,92,0.00,,,0.00,Wunderground v.1.15,2013-12-02 05:15:00,
2013-12-01 23:20:00,54.6,52.3,29.89,SW,220,1.0,1.0,92,0.00,,,0.00,Wunderground v.1.15,2013-12-02 05:20:00,
2013-12-01 23:25:00,54.6,52.6,29.89,SW,221,1.0,1.0,93,0.00,,,0.00,Wunderground v.1.15,2013-12-02 05:25:00,
2013-12-01 23:30:00,54.6,52.6,29.89,SW,221,1.0,1.0,93,0.00,,,0.00,Wunderground v.1.15,2013-12-02 05:30:00,
2013-12-01 23:40:00,54.4,52.4,29.89,SW,221,0.0,0.0,93,0.00,,,0.00,Wunderground v.1.15,2013-12-02 05:40:00,
2013-12-01 23:45:00,54.2,52.2,29.89,SW,221,0.0,0.0,93,0.00,,,0.00,Wunderground v.1.15,2013-12-02 05:45:00,
2013-12-01 23:50:00,54.0,52.0,29.88,SW,221,0.0,0.0,93,0.00,,,0.00,Wunderground v.1.15,2013-12-02 05:50:00,
2013-12-01 23:55:00,53.9,51.9,29.88,SW,221,0.0,0.0,93,0.00,,,0.00,Wunderground v.1.15,2013-12-02 05:55:00,